Location: Newark
(60.6561°N, 46.5772°E)
Time: 05:21:12
(UTC+00:00)

Tiros 1 despin weight - Pass Details

Date: 29 October 2019
Orbit: 594 x 642 km, 48.2° (Epoch: 18 November)

Event Time Altitude Azimuth Distance (km) Brightness Sun altitude
Rises 20:25:18 0° 236° (SW) 2,913 - -42.9°
Reaches altitude 10° 20:28:15 10° 217° (SW) 2,015 - -42.9°
Maximum altitude 20:31:18 18° 175° (S) 1,585 - -42.9°
Drops below altitude 10° 20:34:22 10° 134° (SE) 2,029 - -42.9°
Sets 20:37:20 0° 115° (ESE) 2,943 - -42.9°
